Location: Lafig�re
(44.4503°N, 4.0357°E)
Time: 06:43:35
(UTC+00:00)

Cosmos 1125 Rocket - Pass Details

Date: 26 January 2021
Orbit: 757 x 780 km, 74.0° (Epoch: 06 March)

Event Time Altitude Azimuth Distance (km) Brightness Sun altitude
Exits shadow 05:37:36 - 338° (NNW) 2,656 6.0 -16.2°
Reaches altitude 10° 05:38:26 10° 337° (NNW) 2,338 5.7 -16.1°
Maximum altitude 05:43:45 82° 251° (WSW) 794 3.5 -15.1°
Drops below altitude 10° 05:49:03 10° 165° (SSE) 2,327 6.4 -14.2°
Sets 05:51:25 0° 164° (SSE) 3,251 7.2 -13.8°
